Regional Weather Roundup
Issued by NWS Wakefield, VA

Home | Current Version | Previous Version | Graphics & Text | Print | Product List | Glossary On
Versions: 1 2 3 4 5 6 7 8 9 10 11 12 13 14 15 16 17 18 19 20 21 22 23 24 25 26 27 28 29 30 31 32 33 34 35 36 37 38 39 40 41 42 43 44 45 46 47 48 49 50
000
ASUS41 KAKQ 230915
RWRAKQ

REGIONAL WEATHER ROUNDUP
NATIONAL WEATHER SERVICE WAKEFIELD VA
500 AM EDT SAT JUL 23 2016

Note: "fair" indicates few or no clouds below 12,000 feet with no
significant weather and/or obstructions to visibility. * = Denotes
station may not report precipitation (e.g., rain,snow,etc.),
thunder or fog.

VAZ042-051-052>054-056-231000-
NORTHERN VIRGINIA

CITY           SKY/WX    TMP DP  RH WIND       PRES   REMARKS
WASH NATIONAL  FAIR      80  73  79 SW5       29.93S
DULLES         FAIR      73  70  90 VRB3      29.95R
FORT BELVOIR   FAIR      72  70  94 CALM      29.93S
QUANTICO       FAIR      76  72  87 W6        29.94R
FREDERICKSBRG* FAIR      73  73 100 CALM      29.93R
STAFFORD*      FAIR      70  68  94 NW6       29.97S
WARRENTON      FOG       70  66  86 CALM      29.94S VSB 1
CULPEPER*        N/A     70  70 100 CALM      29.96R FOG
MANASSAS*      FAIR      72  70  94 CALM      29.94S
LEESBURG*      FAIR      77  73  88 CALM      29.96S
WINCHESTER     FAIR      75  68  78 W5        29.98S
FRONT ROYAL*   FAIR      72  70  94 SW3       29.97S
LURAY*         FAIR      70  70 100 CALM      30.00S
$$

VAZ048-049-060>072-079>083-231000-
CENTRAL AND SOUTH CENTRAL VIRGINIA

CITY           SKY/WX    TMP DP  RH WIND       PRES   REMARKS
RICHMOND       FAIR      74  73  97 S6        29.94F
CHESTERFIELD*  FAIR      73  63  68 CALM      29.96S
PETERSBURG*    FAIR     N/A N/A N/A CALM      29.95S
HANOVER        FAIR      73  71  93 S3        29.95F FOG
TAPPAHANNOCK*  FAIR      76  76 100 CALM      29.94S
QUINTON*       FAIR      75  75  98 CALM      29.93F
CHARLOTTSVILLE FAIR      75  70  84 VRB5      29.96S
GORDONSVILLE*  FAIR      70  70  99 CALM      29.95S
ORANGE*          N/A     72  72 100 CALM      29.96F
LOUISA*          N/A     72  72 100 CALM      29.94S FOG
BUMPASS*       FAIR      71  71 100 CALM      29.94S
FARMVILLE*     FAIR     N/A N/A N/A CALM      29.95S
CREWE*         FAIR      73  73 100 CALM      29.95F
FORT PICKETT*  FAIR      73  73  97 W5        29.97S
CHASE CITY*    FAIR      73  72  95 CALM      29.98R
CLARKSVILLE*   FAIR      70  70 100 S3        29.97S
SOUTH HILL*    FAIR      71  71  99 S5        30.02F
LAWRENCEVILLE* FAIR      72  72  99 SW3       29.96F
EMPORIA*       FAIR      72  72 100 CALM      29.97S
$$

VAZ088>098-231000-
SOUTHEAST VIRGINIA

CITY           SKY/WX    TMP DP  RH WIND       PRES   REMARKS
NORFOLK        FAIR      77  71  82 SW10      29.94F
VIRGINIA BEACH FAIR      80  70  71 SW8       29.94S
NORFOLK NAVAL  FAIR      77  72  84 SW8       29.96S
WEST POINT*    FAIR      77  74  91 CALM      29.95S
SALUDA*        FAIR      77  76  95 CALM      29.93S
NEWPORT NEWS   FAIR      77  74  90 SW7       29.94F
LANGLEY AFB    FAIR      77  73  87 S8        29.94S
FORT EUSTIS    FAIR      77  73  89 SW3       29.93S
WILLIAMSBURG*  FAIR      79  73  83 CALM      29.95S
HR EXEC AP*    FAIR      73  70  88 SW5       29.97F
FRANKLIN*      FAIR      74  71  90 S5        29.96S
US460-WAKEFLD  FAIR      75  72  90 SW3       29.94F FOG
$$

VAZ020-022-025-037-045-231000-
WEST CENTRAL AND SOUTHWEST VIRGINIA

CITY           SKY/WX    TMP DP  RH WIND       PRES   REMARKS
STAUNTON*      FAIR      65  65  98 CALM      30.04S FOG
WAYNESBORO*    FAIR      67  66  95 CALM      30.03S
HOT SPRINGS VA FAIR      68  68 100 NW9       30.17S
LYNCHBURG      FAIR      70  69  97 CALM      30.01S
DANVILLE       FAIR      71  69  93 SW3       29.99S
SOUTH BOSTON*  FAIR      71  70  95 CALM      29.97F
MARTINSVILLE   FAIR      67  66  96 CALM      30.03F FOG
ROANOKE        FAIR      73  68  84 CALM      30.04S
BLACKSBURG     FAIR      67  66  99 CALM      30.12F
DUBLIN*        FAIR      68  66  93 CALM      30.10F
MARION*        FAIR      64  63  96 CALM      30.15F FOG
HILLSVILLE*    FAIR      67  66  96 CALM      30.12S
RICHLANDS*     FAIR      69  66  89 SE5       30.12F
WISE*          FAIR      72  63  73 CALM      30.14F
ABINGDON*      FAIR      70  67  89 E6        30.09F
$$

MDZ021>025-VAZ099-100-231000-
SOUTHERN MARYLAND AND THE DELMARVA PENINSULA

CITY           SKY/WX    TMP DP  RH WIND       PRES   REMARKS
PATUXENT RIVER CLEAR     76  71  85 W5        29.92S
BAY BRIDGE APT CLEAR     82  73  74 W6        29.91S
LEONARDTOWN    CLEAR     75  70  83 CALM      29.94S
DOVER          CLEAR     78  75  90 W8        29.88S
GEORGETOWN     CLEAR     77  73  87 SW6       29.91F
EASTON         CLEAR     80  76  88 CALM      29.95S
CAMBRIDGE      CLEAR     73  72  94 CALM      29.91F
SALISBURY      CLEAR     77  76  96 W3        29.91F
OCEAN CITY     CLEAR     78  76  93 W5        29.90F
WALLOPS ISLAND FAIR      81  76  84 W7        29.92F
ACCOMACK*      FAIR      81  73  78 CALM      29.93S
$$

NCZ012>017-030>032-231000-
NORTH CENTRAL AND EASTERN NORTH CAROLINA

CITY           SKY/WX    TMP DP  RH WIND       PRES   REMARKS
ROANOKE RAPIDS FAIR      72  72 100 SW5       29.96F
RALEIGH        PTCLDY    73  70  90 SW3       29.98F
ELIZABETH CITY CLEAR     75  71  87 SW9       29.96F
AHOSKIE*       CLEAR     72  71  96 CALM      29.97S
EDENTON*       CLEAR     78  71  80 SW8       29.98F
CURRITUCK*     CLEAR     77  71  81 SW6       29.97F
KILL DEVIL HLS CLEAR     78  72  83 SW6       29.97F
MANTEO           N/A     78  75  91 SW13      29.99F
CAPE HATTERAS  CLEAR     80  73  79 W6        30.00F
TARBORO*       FAIR      74  72  94 CALM      29.98F
GOLDSBORO      CLEAR     74  74 100 S3        29.97F
WASHINGTON     CLEAR     73  70  89 S3        29.99F
GREENVILLE     CLEAR     73  72  94 SW5       30.00F
NEW BERN       CLEAR     75  71  87 CALM      30.01F
WILMINGTON     PTCLDY    76  72  87 CALM      30.00F
$$

VAZ048-231000-
ELSEWHERE

CITY           SKY/WX    TMP DP  RH WIND       PRES   REMARKS
HARRISBURG PA  CLEAR     76  72  87 E3        29.90S
BALTIMORE      CLEAR     77  71  82 W9        29.92S
ANNAPOLIS      CLEAR     80  72  76 NW6       29.91S
ANDREWS AFB    FAIR      78  71  81 W6        29.93S
PHILADELPHIA   CLEAR     77  68  73 W7        29.88R
GREENSBORO     PTCLDY    73  70  90 W8        30.00S
ROCKY MOUNT    CLEAR     73  72  96 CALM      29.98F
$$

VAZ100-231000-
MARINE

STATION/POSITION TIME  TEMP    WIND        PRES    WAVE   SWELL
                       AIR SEA DIR/SP/G            HT/PER HT/PER
                 (UTC) (F)     (DEG/KT/KT) (MB)    (FT/S) (FT/S)
BRANDYWINE LGT   0800   80     270/ 13/ 16   N/A
CAPE MAY NJ      0800   78 74  270/ 10/ 11 1011.8R
LEWES DE         0800   80 73  260/  7/ 10 1012.3S
OCEAN-CITY-INLET 0800   78 70  270/  6/  8 1013.1S
WACHAPREAGUE VA  0800   80 84  250/  4/  7 1013.5S
THOMAS POINT MD  0900   81 80  290/ 12/ 13 1014.1F
GOOSES REEF MD   0800   82 82  280/ 10/ 12 1014.1R   1/ 2
COVE POINT MD    0800   80     280/  7/ 11 1013.6R
SOLOMONS ISLAND  0800   81 83  310/  4/  5   N/A
BISHOPS HEAD MD  0800   84 84  270/ 13/ 18 1013.3S
PINEY POINT MD   0800          310/ 10/ 11   N/A
POTOMAC MD       0800   82 83  280/ 10/ 12 1012.3R   1/ 2
CAMBRIDGE MD     0800   81 85  220/  3/  3 1012.2R
LEWISETTA VA     0800   80 85  250/  8/  9 1012.9S
RAPPAHANNOCK LGT 0800          240/ 14/ 16 1014.1S
STINGRAY PT      0800   81 84  180/ 14/ 16 1013.8F   1/ 2
YORK RVR RNG VA  0800   80     250/ 12/ 13 1013.2F
YORKTOWN VA      0800   79 83  230/ 12/ 16 1013.2F
JAMESTOWN VA     0800   79 87  240/  4/  6   N/A     1
DOMINION TERM VA 0800   79     240/ 14/ 16 1013.9F
KIPTOPEKE VA     0800      79  250/ 13/ 16   N/A
CHES BAY BRIDGE  0800   79 79  210/ 14/ 15 1013.7F
CAPE HENRY VA    0800   78     220/ 10/ 15   N/A
WILLOUBY STN VA  0800   79     230/ 12/ 13   N/A
CAPE HENRY BUOY  0812      80                N/A     3/ 9
1ST LANDING BUOY 0800   79 80  220/ 14/ 16 1013.8F
CAPE CHARLES BUO 0826      70                N/A     2/ 9
OFFSHORE WE BUOY 0821      81                N/A     3/ 9
64NM E OF VA BCH 0850   80 80  230/ 16/ 19 1014.2F   4/ 4   2/ 8
DUCK PIER NC     0800   80 66  230/ 14/ 18 1014.6F
44100 DUCK FRF   0805      80                N/A     2/ 8
44056 DUCK FRF   0811      70                N/A     2/ 8
OREGON INLET NC  0800   81 85  240/ 12/ 14 1015.6S
HATTERAS NC      0800   80 83  240/  5/  7 1015.9R
DIAMOND SHLS NC  0850   83 85  230/ 12/ 14 1016.0F   3/ 8   2/ 8
CAPE LOOKOUT NC  0900   81     230/  5/  7 1015.8F
$$



USA.gov is the U.S. government's official web portal to all federal, state and local government web resources and services.